Location: Cedar Falls
(42.5280°N, 92.4450°W)
Time: 01:29:12
(UTC-05:00)

NOSS 3-1 (C) - Visible Passes

Search period start: 21 August 2017 00:00
Search period end: 31 August 2017 00:00
Orbit: 825 x 1384 km, 63.4° (Epoch: 16 August)

Date Brightness Start Highest point End Pass type
(mag) Time Alt. Az. Time Alt. Az. Time Alt. Az.
21 Aug 6.4 00:41:32 10° NNW 00:45:20 15° NNE 00:49:21 10° NE visible
21 Aug 5.4 02:32:01 10° NNW 02:38:39 35° NE 02:45:57 10° ESE visible
21 Aug 4.0 04:22:35 10° NW 04:30:12 72° WSW 04:38:34 10° SSE visible
21 Aug 6.2 22:00:53 10° WNW 22:05:01 18° NNW 22:09:28 10° NNE visible
21 Aug 6.5 23:55:58 10° NNW 23:59:05 13° N 00:02:22 10° NNE visible
22 Aug 5.8 01:46:54 10° NNW 01:52:50 26° NNE 01:59:19 10° E visible
22 Aug 4.1 03:37:16 10° NW 03:44:52 80° NE 03:53:17 10° SE visible
22 Aug 4.9 05:29:11 10° WNW 05:35:19 25° WSW 05:41:49 10° SSW visible
22 Aug 5.9 21:14:18 10° W 21:19:02 23° NNW 21:24:14 10° NNE visible
22 Aug 6.4 23:09:56 10° NNW 23:12:49 13° N 23:15:51 10° NNE visible
23 Aug 6.0 01:01:46 10° NNW 01:06:53 20° NNE 01:12:25 10° ENE visible
23 Aug 4.5 02:52:03 10° NNW 02:59:25 57° NE 03:07:36 10° SE visible
23 Aug 4.5 04:43:15 10° NW 04:50:18 39° WSW 04:57:55 10° S visible
23 Aug 5.4 20:27:59 10° W 20:33:13 31° NW 20:39:04 10° NNE visible
23 Aug 6.3 22:23:25 10° NW 22:26:35 14° N 22:29:57 10° NNE visible
24 Aug 6.2 00:16:33 10° NNW 00:20:47 16° NNE 00:25:19 10° NE visible
24 Aug 5.1 02:06:54 10° NNW 02:13:51 41° NE 02:21:31 10° ESE visible
24 Aug 4.0 03:57:39 10° NW 04:05:09 59° WSW 04:13:22 10° SSE visible
24 Aug 5.6 05:52:47 10° W 05:54:55 11° WSW 05:57:05 10° WSW visible
24 Aug 6.2 21:36:39 10° NW 21:40:25 16° NNW 21:44:27 10° NNE visible
24 Aug 6.3 23:31:09 10° NNW 23:34:36 14° N 23:38:14 10° NE visible
25 Aug 5.5 01:21:47 10° NNW 01:28:07 30° NE 01:35:04 10° E visible
25 Aug 3.9 03:12:15 10° NW 03:19:53 85° SW 03:28:19 10° SSE visible
25 Aug 5.2 05:04:48 10° WNW 05:10:06 20° WSW 05:13:47 15° SW visible
25 Aug 6.0 20:49:58 10° WNW 20:54:22 20° NNW 20:59:11 10° NNE visible
25 Aug 6.3 22:45:23 10° NNW 22:48:21 13° N 22:51:26 10° NNE visible
26 Aug 5.8 00:36:39 10° NNW 00:42:15 23° NNE 00:48:19 10° E visible
26 Aug 4.2 02:26:59 10° NNW 02:34:31 69° NE 02:37:27 43° ESE visible
26 Aug 4.7 04:18:31 10° NW 04:24:37 31° WSW 04:24:37 31° WSW visible
26 Aug 6.3 21:59:07 10° NNW 22:02:05 13° N 22:05:12 10° NNE visible
26 Aug 6.0 23:51:30 10° NNW 23:56:14 18° NNE 00:01:18 10° ENE visible
27 Aug 4.7 01:41:48 10° NNW 01:49:00 49° NE 01:51:20 39° E visible
27 Aug 4.4 03:32:46 10° NW 03:38:35 43° W 03:38:35 43° W visible
27 Aug 6.2 21:12:27 10° NW 21:15:52 14° NNW 21:19:30 10° NNE visible
27 Aug 6.2 23:06:13 10° NNW 23:10:05 15° NNE 23:14:11 10° NE visible
28 Aug 5.2 00:56:40 10° NNW 01:03:21 35° NE 01:05:57 29° ENE visible
28 Aug 4.2 02:47:16 10° NW 02:53:15 57° WNW 02:53:15 57° WNW visible
28 Aug 6.0 20:25:42 10° WNW 20:29:45 17° NNW 20:34:08 10° NNE visible
28 Aug 6.2 22:20:41 10° NNW 22:23:51 13° N 22:27:11 10° NE visible
29 Aug 5.5 00:11:33 10° NNW 00:17:34 27° NE 00:20:57 20° ENE visible
29 Aug 4.2 02:01:57 10° NW 02:08:16 66° NNW 02:08:16 66° NNW visible
29 Aug 5.7 03:53:57 10° WNW 03:55:35 15° WNW 03:55:35 15° WNW visible
29 Aug 6.2 21:34:42 10° NNW 21:37:35 13° N 21:40:37 10° NNE visible
29 Aug 5.8 23:26:25 10° NNW 23:31:38 21° NNE 23:36:11 13° ENE visible
30 Aug 4.4 01:16:43 10° NNW 01:23:31 57° NNE 01:23:31 57° NNE visible
30 Aug 5.4 03:07:58 10° NW 03:10:51 23° WNW 03:10:51 23° WNW visible
30 Aug 6.1 20:48:13 10° NW 20:51:21 14° N 20:54:39 10° NNE visible
30 Aug 6.0 22:41:13 10° NNW 22:45:33 17° NNE 22:50:10 10° ENE visible
